Location: Newark
(52.3500°N, 175.9667°E)
Time: 18:04:52
(UTC+00:00)

X-37B - Pass Details

Date: 15 March 2021
Orbit: 380 x 394 km, 45.0° (Epoch: 07 April)

Event Time Altitude Azimuth Distance (km) Brightness Sun altitude
Rises 07:50:11 0° 235° (SW) 2,269 5.1 -14.4°
Reaches altitude 10° 07:52:37 10° 217° (SW) 1,418 3.7 -14.8°
Maximum altitude 07:54:59 19° 169° (S) 999 2.4 -15.1°
Enters shadow 07:55:08 19° 164° (SSE) 1,002 2.3 -15.2°
